Regional Weather Roundup
Issued by NWS Charleston, SC

Current Version | Previous Version | Graphics & Text | Print | Product List | Glossary On
Versions: 1 2 3 4 5 6 7 8 9 10 11 12 13 14 15 16 17 18 19 20 21 22 23 24 25 26 27 28 29 30 31 32 33 34 35 36 37 38 39 40 41 42 43 44 45 46 47 48 49 50
000
ASUS42 KCHS 262113
RWRCHS

REGIONAL WEATHER ROUNDUP
NATIONAL WEATHER SERVICE CHARLESTON SC
500 PM EDT THU MAY 26 2016

NOTE: "FAIR" INDICATES FEW OR NO CLOUDS BELOW 12,000 FEET WITH NO
SIGNIFICANT WEATHER AND/OR OBSTRUCTIONS TO VISIBILITY.

NOT ALL STATIONS ARE QUALITY CONTROLLED. USE DATA WITH CAUTION...
ESPECIALLY DEWPOINT OBSERVATIONS.

SCZ027-030-031-034>040-042>050-262200-
...SOUTHEAST SOUTH CAROLINA...

CITY           SKY/WX    TMP DP  RH WIND       PRES   REMARKS
N CHARLESTON   MOSUNNY   86  57  37 S13       30.13F
WATERFRONT PRK   N/A     81  63  54 S8        30.13F
MOUNT PLEASANT FAIR      82  59  44 S12       30.14F
JOHNS ISLAND   FAIR      82  63  51 S9        30.15F
PINOPOLIS        N/A     90  64  43 SW7       30.04F HX  91
MONCKS CORNER  CLOUDY    81  54  39 S9        30.12F
SUMMERVILLE    MOCLDY    86  64  48 S3        30.14F
BEAUFORT MCAS  MOSUNNY   86  61  42 S5        30.14F
BEAUFORT ARPT  FAIR      82  54  36 S6        30.14S
HILTON HEAD IS SUNNY     86  64  48 SE6       30.16F
WALTERBORO     PTCLDY    88  61  40 S10       30.13F
ALLENDALE      FAIR      86  61  42 VRB6      30.10F

...SOUTHERN MIDLANDS AND PEE DEE...

CITY           SKY/WX    TMP DP  RH WIND       PRES   REMARKS
GEORGETOWN     FAIR      82  55  39 SE9       30.15F
KINGSTREE      CLOUDY    84  59  42 S3        30.12F
ORANGEBURG     MOSUNNY   87  61  41 SW6       30.11F
BARNWELL       FAIR      90  64  43 SE10      30.11F HX  91
AIKEN          FAIR      88  59  37 SW3       30.13F
MANNING        FAIR      84  61  45 S7        30.12F
COLUMBIA       MOSUNNY   89  59  36 SE6       30.09F
SUMTER         MOSUNNY   89  62  41 S8        30.09F
FLORENCE       PTSUNNY   88  63  43 S10       30.11F
MYRTLE BEACH   SUNNY     81  64  57 S14       30.16F
N MYRTLE BEACH SUNNY     79  68  69 S13       30.15F

$$

GAZ063-065-086>088-099>101-113>116-118-119-134>141-150-262200-
...SOUTHEAST GEORGIA...

CITY           SKY/WX    TMP DP  RH WIND       PRES   REMARKS
SAVANNAH ARPT  MOSUNNY   85  55  35 SE13      30.13F
HUNTER AAF     SUNNY     85  60  43 SE9       30.11F
FORT STEWART   MOSUNNY   85  59  41 SE8       30.10F
STATESBORO     MOSUNNY   88  65  47 S8        30.11F
SYLVANIA       CLEAR     89  63  41 S5        30.12F HX  90
CLAXTON        FAIR      85  65  51 SE5       30.11F

...CSRA...CENTRAL AND FAR SOUTHEAST GEORGIA...

CITY           SKY/WX    TMP DP  RH WIND       PRES   REMARKS
THOMSON        CLOUDY    88  68  51 CALM      30.14F HX  91
AUGUSTA-BUSH   MOSUNNY   89  60  37 SE8       30.08F
AUGUSTA-DANIEL PTSUNNY   90  60  36 SE9       30.10F
SWAINSBORO     MOCLDY    88  57  35 SE6       30.10F
VIDALIA        CLOUDY    88  61  40 SE8       30.10F
EASTMAN        CLOUDY    87  60  40 SW3       30.11F
HAZLEHURST     FAIR      89  58  34 CALM      30.09F
ALMA           PTSUNNY   86  62  44 E8        30.10F
WAYCROSS       CLOUDY    84  61  46 SE7       30.10F
JESUP          FAIR      82  55  39 S10       30.11F
BAXLEY         FAIR      86  63  45 SE8       30.10F
BRUNSWICK      SUNNY     88  54  31 E9        30.13F
SAINT SIMONS   SUNNY     81  64  56 E9        30.14F

$$

SCZ027-028-034-036>038-045-046-048>050-GAZ119-141-262200-
...LAKE AND SUPPLEMENTAL COASTAL OBSERVATIONS...

STATION/POSITION TIME  TEMP    WIND        PRES    WAVE   SWELL
                       AIR SEA DIR/SP/G            HT/PER HT/PER/DIR
                 (UTC) (F)     (DEG/KT/KT) (MB)    (FT/S) (FT/S/D)
WINYAH BAY       NOT AVBL
LAKE MURRAY      2000   87     170/  3/  4 1019.0F
ACE BASIN NERRS  NOT AVBL
FORT PULASKI     2000   80 77  130/  4/  6 1021.5F
SAPELO ISLAND    2000   85      90/  5     1021.0F

$$

ANZ835-935-AMZ111-154-330-350-352-354-370-450-454-472-262200-
...C-MAN AND BUOY OBSERVATIONS...

STATION/POSITION TIME  TEMP    WIND        PRES    WAVE   SWELL
                       AIR SEA DIR/SP/G            HT/PER HT/PER/DIR
                 (UTC) (F)     (DEG/KT/KT) (MB)    (FT/S) (FT/S/D)
BUOY 41004       2050   78 79  120/  4/  6 1021.0F   2/ 8   2/ 8
BUOY 41008       2050   77 80   90/  6/  8 1021.0F   2/ 8   2/110/ 8
FOLLY BEACH CMAN 2100   78     170/  9/ 10 1021.3F
CAPERS NEARSHORE 2008   77 78  190/  8/ 10 1021.5F
FRIPP NEARSHORE  2008   77 79  180/  6/  8 1021.0F


STATION/POSITION TIME  TEMP    WIND        PRES    WAVE   SWELL
                       AIR SEA DIR/SP/G            HT/PER HT/PER/DIR
                 (UTC) (F)     (DEG/KT/KT) (MB)    (FT/S) (FT/S/D)
5E ST. MARYS GA  NOT AVBL
FRYING PAN BUOY  2000   78 78  220/  4/  6 1021.9F
BUOY 41025       2050   75 73  230/  4/  4 1021.5F   2/ 8   2/110/ 8
CAPE LOOKOUT NC  2100   78     190/ 11/ 13 1021.1F
BUOY 41002       2050   76 78   60/ 14/ 17 1021.2F   3/ 3   2/ 80/ 8
BUOY 41010       2020   77 79   70/ 14/ 17 1019.4F
ST AUGUSTINE FL  2100   77 81   60/ 12/ 12 1020.9F


$$




USA.gov is the U.S. government's official web portal to all federal, state and local government web resources and services.